Weather History for Ord, NE

Change the Weather History Date:

Thursday, July 18, 2013

  Actual Average Record
Temperature  
Mean Temperature 81 °F 75 °F  
Max Temperature 93 °F 88 °F 100 °F (2002)
Min Temperature 68 °F 62 °F 54 °F (2014)
Degree Days  
Heating Degree Days 0 0  
Month to date heating degree days 1 0  
Since 1 June heating degree days 48 37  
Since 1 July heating degree days 1 0  
Cooling Degree Days 16 10  
Month to date cooling degree days 191 167  
Year to date cooling degree days 404 370  
Since 1 June cooling degree days 357 329  
Growing Degree Days 30 (Base 50)    
Moisture  
Dew Point 64 °F    
Average Humidity 61    
Maximum Humidity 84    
Minimum Humidity 38    
Precipitation  
Precipitation 0.00 in 0.08 in 1.75 in (1950)
Month to date precipitation 2.17 1.51  
Year to date precipitation 14.24 14.29  
Sea Level Pressure  
Sea Level Pressure 30.00 in    
Wind  
Wind Speed 12 mph (SSW)    
Max Wind Speed 25 mph    
Max Gust Speed 31 mph    
Visibility 10 miles    
Events      
T = Trace of Precipitation, MM = Missing Value Source: NWS Daily Summary

Daily Weather History Graph

Daily Weather History Graph

Search for Another Location

Airport:

Trip Planner

Search our weather history database for the weather conditions in past years. The results will help you decide how hot, cold, wet, or windy it might be!

Date:

Astronomy

Jul. 18, 2013 Rise Set
Actual Time 6:17 AM CDT 9:06 PM CDT
Civil Twilight 5:44 AM CDT 9:38 PM CDT
Nautical Twilight 5:03 AM CDT 10:19 PM CDT
Astronomical Twilight 4:15 AM CDT 11:07 PM CDT
Moon 5:04 PM CDT (7/18) 2:09 AM CDT (7/18)
Length of Visible Light 15h 54m
Length of Day
14h 48m
Waxing Gibbous, 77% of the Moon is Illuminated
Jul 18
Waxing Gibbous
Jul 22
Full
Jul 29
Last Quarter
Aug 6
New
Aug 14
First Quarter

Hourly Weather History & Observations

Time (CDT) Temp. Heat Index Dew Point Humidity Pressure Visibility Wind Dir Wind Speed Gust Speed Precip Events Conditions
12:53 AM 75.9 °F - 64.0 °F 67% 30.12 in 10.0 mi South 11.5 mph - N/A   Clear
1:53 AM 75.0 °F - 63.0 °F 66% 30.12 in 10.0 mi South 11.5 mph - N/A   Clear
2:53 AM 72.0 °F - 64.0 °F 76% 30.11 in 10.0 mi South 8.1 mph - N/A   Clear
3:53 AM 71.1 °F - 63.0 °F 75% 30.10 in 10.0 mi South 6.9 mph - N/A   Clear
4:53 AM 70.0 °F - 63.0 °F 78% 30.09 in 10.0 mi South 5.8 mph - N/A   Clear
5:53 AM 68.0 °F - 63.0 °F 84% 30.09 in 10.0 mi SSW 8.1 mph - N/A   Clear
6:53 AM 69.1 °F - 64.0 °F 84% 30.08 in 10.0 mi South 6.9 mph - N/A   Clear
7:53 AM 72.0 °F - 64.9 °F 78% 30.06 in 10.0 mi South 9.2 mph - N/A   Clear
8:53 AM 75.9 °F - 66.0 °F 71% 30.06 in 10.0 mi SSW 12.7 mph - N/A   Clear
9:53 AM 80.1 °F 82.1 °F 66.0 °F 62% 30.06 in 10.0 mi SSW 13.8 mph - N/A   Clear
10:53 AM 82.9 °F 84.6 °F 64.9 °F 54% 30.04 in 10.0 mi SSW 15.0 mph - N/A   Clear
11:53 AM 86.0 °F 87.6 °F 64.9 °F 49% 30.01 in 10.0 mi SSW 20.7 mph 27.6 mph N/A   Clear
12:53 PM 87.1 °F 88.9 °F 64.9 °F 48% 29.99 in 10.0 mi SSW 20.7 mph 27.6 mph N/A   Clear
1:53 PM 89.1 °F 91.0 °F 64.9 °F 45% 29.98 in 10.0 mi South 18.4 mph 26.5 mph N/A   Clear
2:53 PM 90.0 °F 91.3 °F 64.0 °F 42% 29.95 in 10.0 mi SSW 18.4 mph 28.8 mph N/A   Clear
3:53 PM 91.9 °F 93.3 °F 64.0 °F 39% 29.94 in 10.0 mi SSW 18.4 mph 25.3 mph N/A   Partly Cloudy
4:53 PM 91.0 °F 92.6 °F 64.0 °F 41% 29.92 in 10.0 mi SSW 13.8 mph - N/A   Partly Cloudy
5:53 PM 91.9 °F 92.9 °F 63.0 °F 38% 29.90 in 10.0 mi SSW 16.1 mph 24.2 mph N/A   Partly Cloudy
6:53 PM 91.0 °F 92.6 °F 64.0 °F 41% 29.88 in 10.0 mi South 12.7 mph - N/A   Clear
7:53 PM 89.1 °F 90.0 °F 63.0 °F 42% 29.87 in 10.0 mi South 10.4 mph - N/A   Clear
8:53 PM 84.9 °F 85.4 °F 62.1 °F 46% 29.87 in 10.0 mi South 8.1 mph - N/A   Clear
9:53 PM 82.9 °F 84.0 °F 63.0 °F 51% 29.89 in 10.0 mi South 8.1 mph - N/A   Clear
10:53 PM 81.0 °F 82.2 °F 63.0 °F 54% 29.89 in 10.0 mi South 9.2 mph - N/A   Clear
11:53 PM 75.9 °F - 63.0 °F 64% 29.90 in 10.0 mi SSW 6.9 mph - N/A   Clear